Weather History for Lexington, NE

Change the Weather History Date:

Sunday, November 4, 2012

  Actual Average Record
Temperature  
Mean Temperature 46 °F -  
Max Temperature 61 °F 51 °F 78 °F (2007)
Min Temperature 32 °F 28 °F 21 °F (1999)
Degree Days  
Heating Degree Days 18    
Moisture  
Dew Point 36 °F    
Average Humidity 71    
Maximum Humidity 92    
Minimum Humidity 37    
Precipitation  
Precipitation 0.00 in - - ()
Sea Level Pressure  
Sea Level Pressure 30.08 in    
Wind  
Wind Speed 6 mph (WNW)    
Max Wind Speed 13 mph    
Max Gust Speed -    
Visibility 10 miles    
Events Rain    
Averages and records for this station are not official NWS values.
T = Trace of Precipitation, MM = Missing Value Source: NWS Daily Summary

Daily Weather History Graph

Daily Weather History Graph

Search for Another Location

Airport:

Trip Planner

Search our weather history database for the weather conditions in past years. The results will help you decide how hot, cold, wet, or windy it might be!

Date:

Astronomy

Nov. 04, 2012 Rise Set
Actual Time 7:13 AM CST 5:31 PM CST
Civil Twilight 6:45 AM CST 5:59 PM CST
Nautical Twilight 6:12 AM CST 6:32 PM CST
Astronomical Twilight 5:40 AM CST 7:04 PM CST
Moon 10:10 PM CST (11/4) 11:58 AM CST (11/4)
Length of Visible Light 11h 14m
Length of Day
10h 17m
Waning Gibbous, 72% of the Moon is Illuminated
Nov 4
Waning Gibbous
Nov 6
Last Quarter
Nov 13
New
Nov 20
First Quarter
Nov 28
Full

Hourly Weather History & Observations

Time (CST) Temp. Windchill Dew Point Humidity Pressure Visibility Wind Dir Wind Speed Gust Speed Precip Events Conditions
12:15 AM 37.4 °F 32.8 °F 32.5 °F 83% 30.14 in 10.0 mi ESE 5.8 mph - N/A   Clear
12:35 AM 34.9 °F 29.9 °F 31.5 °F 87% 30.14 in 10.0 mi SE 5.8 mph - N/A   Clear
12:55 AM 40.6 °F 36.0 °F 35.1 °F 80% 30.13 in 10.0 mi SSE 6.9 mph - N/A   Clear
1:15 AM 40.3 °F 35.5 °F 34.7 °F 80% 30.13 in 10.0 mi SSE 6.9 mph - N/A   Clear
1:35 AM 39.2 °F 35.0 °F 34.5 °F 83% 30.13 in 10.0 mi SE 5.8 mph - N/A   Clear
1:55 AM 39.4 °F 34.5 °F 34.7 °F 83% 30.12 in 10.0 mi SSE 6.9 mph - N/A   Clear
1:15 AM 39.0 °F 32.8 °F 35.1 °F 86% 30.11 in 10.0 mi South 9.2 mph - N/A   Clear
1:35 AM 42.6 °F 38.4 °F 36.0 °F 77% 30.11 in 10.0 mi South 6.9 mph - N/A   Clear
1:55 AM 42.8 °F 37.5 °F 36.0 °F 77% 30.11 in 10.0 mi South 9.2 mph - N/A   Clear
2:15 AM 43.2 °F 37.4 °F 36.0 °F 76% 30.09 in 10.0 mi South 10.4 mph - N/A   Clear
2:35 AM 44.2 °F 38.0 °F 36.3 °F 74% 30.08 in 10.0 mi South 12.7 mph - N/A   Clear
2:55 AM 43.7 °F 37.3 °F 35.6 °F 73% 30.07 in 10.0 mi South 12.7 mph - N/A   Clear
3:15 AM 42.4 °F 37.5 °F 35.1 °F 75% 30.07 in 10.0 mi South 8.1 mph - N/A   Clear
3:35 AM 41.4 °F 39.4 °F 34.7 °F 77% 30.07 in 10.0 mi SW 3.5 mph - N/A   Clear
3:55 AM 42.6 °F 38.4 °F 34.5 °F 73% 30.08 in 10.0 mi WSW 6.9 mph - N/A   Clear
4:15 AM 40.3 °F 35.5 °F 33.4 °F 77% 30.07 in 10.0 mi WSW 6.9 mph - N/A   Clear
4:35 AM 39.9 °F 35.8 °F 33.1 °F 77% 30.07 in 10.0 mi WSW 5.8 mph - N/A   Clear
4:55 AM 38.3 °F 33.9 °F 32.4 °F 79% 30.08 in 10.0 mi WSW 5.8 mph - N/A   Clear
5:15 AM 36.0 °F 31.1 °F 31.5 °F 84% 30.08 in 10.0 mi WSW 5.8 mph - N/A   Clear
5:35 AM 34.0 °F 31.0 °F 30.4 °F 87% 30.08 in 10.0 mi West 3.5 mph - N/A   Clear
5:55 AM 33.8 °F 28.6 °F 30.2 °F 87% 30.08 in 10.0 mi WNW 5.8 mph - N/A   Clear
6:15 AM 32.7 °F 28.3 °F 30.0 °F 90% 30.08 in 10.0 mi NW 4.6 mph - N/A   Clear
6:35 AM 32.5 °F 27.1 °F 30.0 °F 90% 30.08 in 10.0 mi NW 5.8 mph - N/A   Clear
6:55 AM 32.4 °F 26.0 °F 30.2 °F 92% 30.08 in 10.0 mi NW 6.9 mph - N/A   Clear
7:15 AM 32.0 °F 26.4 °F 30.0 °F 92% 30.08 in 10.0 mi WNW 5.8 mph - N/A   Clear
7:35 AM 33.8 °F 27.7 °F 31.1 °F 90% 30.08 in 10.0 mi WNW 6.9 mph - N/A   Clear
7:55 AM 34.5 °F 29.4 °F 31.6 °F 89% 30.09 in 10.0 mi WNW 5.8 mph - N/A   Clear
8:15 AM 35.1 °F 30.1 °F 32.0 °F 89% 30.08 in 10.0 mi West 5.8 mph - N/A   Clear
8:35 AM 36.5 °F 32.7 °F 32.5 °F 86% 30.09 in 10.0 mi West 4.6 mph - N/A   Clear
8:55 AM 38.1 °F 32.9 °F 33.1 °F 82% 30.09 in 10.0 mi WNW 6.9 mph - N/A   Clear
9:15 AM 40.3 °F 35.5 °F 34.5 °F 80% 30.09 in 10.0 mi WNW 6.9 mph - N/A   Clear
9:35 AM 42.8 °F 40.1 °F 35.2 °F 75% 30.08 in 10.0 mi West 4.6 mph - N/A   Clear
9:55 AM 45.0 °F 41.2 °F 36.3 °F 72% 30.07 in 10.0 mi West 6.9 mph - N/A   Clear
10:15 AM 46.4 °F 43.5 °F 36.5 °F 68% 30.07 in 10.0 mi West 5.8 mph - N/A   Clear
10:35 AM 47.8 °F - 36.7 °F 65% 30.07 in 10.0 mi West 4.6 mph - N/A   Clear
10:55 AM 49.6 °F - 36.7 °F 61% 30.08 in 10.0 mi West 4.6 mph - N/A   Clear
11:15 AM 50.4 °F - 37.4 °F 61% 30.07 in 10.0 mi WNW 5.8 mph - N/A   Clear
11:35 AM 52.7 °F - 37.4 °F 56% 30.06 in 10.0 mi West 5.8 mph - N/A   Clear
11:55 AM 53.8 °F - 37.2 °F 54% 30.06 in 10.0 mi NW 3.5 mph - N/A   Clear
12:15 PM 55.0 °F - 37.0 °F 51% 30.05 in 10.0 mi WNW 4.6 mph - N/A   Clear
12:35 PM 56.1 °F - 36.9 °F 48% 30.04 in 10.0 mi WNW 5.8 mph - N/A   Clear
12:55 PM 57.2 °F - 36.3 °F 46% 30.04 in 10.0 mi WNW 6.9 mph - N/A   Clear
1:15 PM 57.4 °F - 36.7 °F 46% 30.03 in 10.0 mi NW 5.8 mph - N/A   Clear
1:35 PM 58.8 °F - 36.0 °F 42% 30.02 in 10.0 mi WNW 4.6 mph - N/A   Clear
1:55 PM 60.1 °F - 35.8 °F 40% 30.02 in 10.0 mi West 4.6 mph - N/A   Scattered Clouds
2:15 PM 59.9 °F - 35.6 °F 40% 30.02 in 10.0 mi WNW 4.6 mph - N/A   Scattered Clouds
2:35 PM 60.3 °F - 35.1 °F 39% 30.02 in 10.0 mi Calm Calm - N/A   Mostly Cloudy
2:55 PM 60.6 °F - 34.5 °F 38% 30.02 in 10.0 mi West 4.6 mph - N/A   Overcast
3:15 PM 60.8 °F - 34.7 °F 38% 30.02 in 10.0 mi WNW 5.8 mph - N/A   Overcast
3:35 PM 60.6 °F - 34.5 °F 38% 30.04 in 10.0 mi NW 5.8 mph - N/A   Overcast
3:55 PM 61.0 °F - 34.5 °F 37% 30.03 in 10.0 mi Calm Calm - N/A   Overcast
4:15 PM 60.1 °F - 36.1 °F 41% 30.04 in 10.0 mi North 4.6 mph - N/A   Overcast
4:35 PM 59.0 °F - 36.7 °F 43% 30.04 in 10.0 mi NNE 4.6 mph - N/A   Overcast
4:55 PM 57.7 °F - 37.4 °F 47% 30.06 in 10.0 mi NNE 5.8 mph - N/A Rain Light Rain
5:15 PM 55.9 °F - 37.9 °F 51% 30.07 in 10.0 mi North 9.2 mph - N/A Rain Light Rain
5:35 PM 54.0 °F - 40.5 °F 60% 30.09 in 10.0 mi North 8.1 mph - N/A Rain Light Rain
5:55 PM 52.2 °F - 41.9 °F 68% 30.08 in 10.0 mi North 4.6 mph - N/A Rain Light Rain
6:15 PM 50.9 °F - 40.6 °F 68% 30.09 in 10.0 mi North 6.9 mph - N/A   Mostly Cloudy
6:35 PM 46.4 °F 42.4 °F 39.9 °F 78% 30.10 in 10.0 mi North 8.1 mph - N/A   Clear
6:55 PM 45.1 °F 41.4 °F 38.8 °F 79% 30.10 in 10.0 mi North 6.9 mph - N/A   Clear
7:15 PM 42.8 °F 38.0 °F 37.2 °F 81% 30.11 in 10.0 mi North 8.1 mph - N/A   Clear
7:35 PM 42.8 °F 39.3 °F 37.6 °F 82% 30.11 in 10.0 mi NNW 5.8 mph - N/A   Clear
7:55 PM 43.3 °F 39.2 °F 38.7 °F 84% 30.11 in 10.0 mi NW 6.9 mph - N/A   Clear
8:15 PM 44.8 °F 43.3 °F 39.4 °F 81% 30.11 in 10.0 mi NW 3.5 mph - N/A   Clear
8:35 PM 43.7 °F 41.1 °F 39.4 °F 85% 30.11 in 10.0 mi West 4.6 mph - N/A   Scattered Clouds
8:55 PM 44.6 °F 42.2 °F 40.1 °F 84% 30.11 in 10.0 mi WNW 4.6 mph - N/A   Scattered Clouds
9:15 PM 44.6 °F 42.2 °F 40.1 °F 84% 30.11 in 10.0 mi WNW 4.6 mph - N/A   Mostly Cloudy
9:35 PM 43.7 °F 39.7 °F 39.4 °F 85% 30.11 in 10.0 mi West 6.9 mph - N/A   Mostly Cloudy
9:55 PM 44.6 °F 40.2 °F 39.7 °F 83% 30.11 in 10.0 mi WNW 8.1 mph - N/A   Mostly Cloudy
10:15 PM 42.8 °F 39.3 °F 38.3 °F 84% 30.11 in 10.0 mi NW 5.8 mph - N/A   Scattered Clouds
10:35 PM 44.4 °F 38.6 °F 39.2 °F 82% 30.11 in 10.0 mi WNW 11.5 mph - N/A   Scattered Clouds
10:55 PM 42.4 °F 37.0 °F 37.8 °F 83% 30.11 in 10.0 mi WNW 9.2 mph - N/A   Clear